Weather History for Grove, OK

Change the Weather History Date:

Monday, August 19, 2013

  Actual Average (KSLG) Record (KSLG)
Temperature  
Mean Temperature 74 °F -  
Max Temperature 87 °F 85 °F 100 °F (2006)
Min Temperature 62 °F 65 °F 62 °F (2012)
Cooling Degree Days 10    
Growing Degree Days 24 (Base 50)    
Moisture  
Dew Point 65 °F    
Average Humidity 77    
Maximum Humidity 100    
Minimum Humidity 37    
Precipitation  
Precipitation 0.00 in - - ()
Sea Level Pressure  
Sea Level Pressure 30.09 in    
Wind  
Wind Speed 1 mph (SSE)    
Max Wind Speed 6 mph    
Max Gust Speed -    
Visibility 8 miles    
Events      
Averages and records for this station are not official NWS values.
T = Trace of Precipitation, MM = Missing Value Source: NWS Daily Summary

Daily Weather History Graph

Daily Weather History Graph

Search for Another Location

Airport:

Trip Planner

Search our weather history database for the weather conditions in past years. The results will help you decide how hot, cold, wet, or windy it might be!

Date:

Astronomy

Aug. 19, 2013 Rise Set
Actual Time 6:39 AM CDT 8:04 PM CDT
Civil Twilight 6:12 AM CDT 8:31 PM CDT
Nautical Twilight 5:40 AM CDT 9:03 PM CDT
Astronomical Twilight 5:05 AM CDT 9:37 PM CDT
Moon 6:56 PM CDT (8/19) 5:00 AM CDT (8/19)
Length of Visible Light 14h 18m
Length of Day
13h 24m
Waxing Gibbous, 97% of the Moon is Illuminated
Aug 19
Waxing Gibbous
Aug 20
Full
Aug 28
Last Quarter
Sep 5
New
Sep 12
First Quarter

Hourly Weather History & Observations

Time (CDT) Temp. Heat Index Dew Point Humidity Pressure Visibility Wind Dir Wind Speed Gust Speed Precip Events Conditions
12:15 AM 68.0 °F - 68.0 °F 100% 30.11 in 5.0 mi Calm Calm - N/A   Clear
12:35 AM 68.0 °F - 68.0 °F 100% 30.11 in 5.0 mi Calm Calm - N/A   Clear
12:55 AM 66.2 °F - 66.2 °F 100% 30.12 in 4.0 mi Calm Calm - N/A   Clear
1:15 AM 66.2 °F - 66.2 °F 100% 30.12 in 4.0 mi Calm Calm - N/A   Clear
1:35 AM 66.2 °F - 66.2 °F 100% 30.12 in 4.0 mi Calm Calm - N/A   Clear
1:55 AM 66.2 °F - 66.2 °F 100% 30.11 in 4.0 mi Calm Calm - N/A   Clear
2:15 AM 64.4 °F - 64.4 °F 100% 30.11 in 4.0 mi Calm Calm - N/A   Clear
2:35 AM 64.4 °F - 64.4 °F 100% 30.11 in 4.0 mi Calm Calm - N/A   Clear
2:55 AM 64.4 °F - 64.4 °F 100% 30.10 in 4.0 mi Calm Calm - N/A   Clear
3:15 AM 64.4 °F - 64.4 °F 100% 30.11 in 4.0 mi Calm Calm - N/A   Clear
3:35 AM 64.4 °F - 64.4 °F 100% 30.11 in 4.0 mi Calm Calm - N/A   Clear
3:55 AM 64.4 °F - 64.4 °F 100% 30.10 in 4.0 mi Calm Calm - N/A   Clear
4:15 AM 64.4 °F - 64.4 °F 100% 30.10 in 3.0 mi Calm Calm - N/A   Clear
4:35 AM 62.6 °F - 62.6 °F 100% 30.09 in 3.0 mi Calm Calm - N/A   Clear
4:55 AM 62.6 °F - 62.6 °F 100% 30.09 in 3.0 mi Calm Calm - N/A   Clear
5:15 AM 62.6 °F - 62.6 °F 100% 30.09 in 3.0 mi Calm Calm - N/A   Clear
5:35 AM 62.6 °F - 62.6 °F 100% 30.09 in 3.0 mi Calm Calm - N/A   Clear
5:55 AM 62.6 °F - 62.6 °F 100% 30.09 in 3.0 mi Calm Calm - N/A   Clear
6:15 AM 62.6 °F - 62.6 °F 100% 30.10 in 3.0 mi Calm Calm - N/A   Clear
6:35 AM 62.6 °F - 62.6 °F 100% 30.11 in 3.0 mi Calm Calm - N/A   Clear
6:55 AM 62.6 °F - 62.6 °F 100% 30.11 in 2.5 mi Calm Calm - N/A   Clear
7:15 AM 62.6 °F - 62.6 °F 100% 30.12 in 2.5 mi Calm Calm - N/A   Clear
7:35 AM 62.6 °F - 62.6 °F 100% 30.12 in 3.0 mi Calm Calm - N/A   Clear
7:55 AM 64.4 °F - 64.4 °F 100% 30.13 in 4.0 mi Calm Calm - N/A   Clear
8:15 AM 66.2 °F - 66.2 °F 100% 30.13 in 5.0 mi Calm Calm - N/A   Clear
8:35 AM 68.0 °F - 68.0 °F 100% 30.13 in 7.0 mi Calm Calm - N/A   Clear
8:55 AM 69.8 °F - 69.8 °F 100% 30.14 in 7.0 mi Calm Calm - N/A   Clear
9:15 AM 71.6 °F - 71.6 °F 100% 30.14 in 10.0 mi Calm Calm - N/A   Clear
9:35 AM 75.2 °F - 71.6 °F 89% 30.14 in 10.0 mi SE 3.5 mph - N/A   Clear
9:55 AM 77.0 °F - 68.0 °F 74% 30.14 in 10.0 mi SSE 5.8 mph - N/A   Clear
10:15 AM 78.8 °F - 68.0 °F 69% 30.14 in 10.0 mi SSE 4.6 mph - N/A   Clear
10:35 AM 80.6 °F 83.2 °F 68.0 °F 65% 30.14 in 10.0 mi SSE 5.8 mph - N/A   Clear
10:55 AM 80.6 °F 82.7 °F 66.2 °F 61% 30.14 in 10.0 mi Calm Calm - N/A   Clear
11:15 AM 82.4 °F 83.9 °F 64.4 °F 54% 30.14 in 10.0 mi South 5.8 mph - N/A   Clear
11:35 AM 82.4 °F 85.4 °F 68.0 °F 62% 30.14 in 10.0 mi SSE 3.5 mph - N/A   Clear
11:55 AM 82.4 °F 83.9 °F 64.4 °F 54% 30.13 in 10.0 mi SSE 5.8 mph - N/A   Clear
12:15 PM 82.4 °F 83.9 °F 64.4 °F 54% 30.13 in 10.0 mi SE 3.5 mph - N/A   Scattered Clouds
12:35 PM 82.4 °F 83.9 °F 64.4 °F 54% 30.13 in 10.0 mi SSW 4.6 mph - N/A   Clear
12:55 PM 84.2 °F 85.0 °F 62.6 °F 48% 30.12 in 10.0 mi SSW 4.6 mph - N/A   Scattered Clouds
1:15 PM 84.2 °F 85.0 °F 62.6 °F 48% 30.11 in 10.0 mi Calm Calm - N/A   Scattered Clouds
1:35 PM 86.0 °F 86.6 °F 62.6 °F 45% 30.11 in 10.0 mi Calm Calm - N/A   Scattered Clouds
1:55 PM 86.0 °F 86.1 °F 60.8 °F 43% 30.10 in 10.0 mi South 3.5 mph - N/A   Scattered Clouds
2:15 PM 86.0 °F 86.1 °F 60.8 °F 43% 30.10 in 10.0 mi SE 4.6 mph - N/A   Scattered Clouds
2:35 PM 86.0 °F 85.4 °F 59.0 °F 40% 30.10 in 10.0 mi Calm Calm - N/A   Scattered Clouds
2:55 PM 84.2 °F 83.8 °F 59.0 °F 42% 30.09 in 10.0 mi South 3.5 mph - N/A   Clear
3:15 PM 86.0 °F 85.4 °F 59.0 °F 40% 30.08 in 10.0 mi Calm Calm - N/A   Clear
3:35 PM 86.0 °F 84.9 °F 57.2 °F 37% 30.08 in 10.0 mi Calm Calm - N/A   Clear
3:55 PM 87.8 °F 87.6 °F 60.8 °F 40% 30.07 in 10.0 mi SW 5.8 mph - N/A   Clear
4:15 PM 86.0 °F 85.4 °F 59.0 °F 40% 30.06 in 10.0 mi Calm Calm - N/A   Clear
4:35 PM 87.8 °F 87.1 °F 59.0 °F 38% 30.06 in 10.0 mi Calm Calm - N/A   Clear
4:55 PM 87.8 °F 87.1 °F 59.0 °F 38% 30.06 in 10.0 mi Calm Calm - N/A   Clear
5:15 PM 86.0 °F 85.4 °F 59.0 °F 40% 30.05 in 10.0 mi Calm Calm - N/A   Clear
5:35 PM 86.0 °F 85.4 °F 59.0 °F 40% 30.05 in 10.0 mi Calm Calm - N/A   Clear
5:55 PM 86.0 °F 86.6 °F 62.6 °F 45% 30.04 in 10.0 mi Calm Calm - N/A   Clear
6:15 PM 86.0 °F 85.4 °F 59.0 °F 40% 30.04 in 10.0 mi Calm Calm - N/A   Clear
6:35 PM 86.0 °F 86.1 °F 60.8 °F 43% 30.03 in 10.0 mi Calm Calm - N/A   Clear
6:55 PM 84.2 °F 85.0 °F 62.6 °F 48% 30.03 in 10.0 mi Calm Calm - N/A   Clear
7:15 PM 82.4 °F 83.9 °F 64.4 °F 54% 30.03 in 10.0 mi Calm Calm - N/A   Clear
7:35 PM 80.6 °F 83.2 °F 68.0 °F 65% 30.03 in 10.0 mi Calm Calm - N/A   Clear
7:55 PM 78.8 °F - 68.0 °F 69% 30.03 in 10.0 mi Calm Calm - N/A   Clear
8:15 PM 77.0 °F - 66.2 °F 69% 30.03 in 10.0 mi Calm Calm - N/A   Clear
8:35 PM 75.2 °F - 68.0 °F 78% 30.03 in 10.0 mi Calm Calm - N/A   Clear
8:55 PM 73.4 °F - 69.8 °F 88% 30.04 in 10.0 mi Calm Calm - N/A   Clear
9:15 PM 71.6 °F - 68.0 °F 88% 30.04 in 10.0 mi Calm Calm - N/A   Clear
9:35 PM 71.6 °F - 71.6 °F 100% 30.05 in 10.0 mi Calm Calm - N/A   Clear
9:55 PM 69.8 °F - 69.8 °F 100% 30.06 in 10.0 mi Calm Calm - N/A   Clear
10:15 PM 69.8 °F - 69.8 °F 100% 30.06 in 10.0 mi Calm Calm - N/A   Clear
10:35 PM 69.8 °F - 69.8 °F 100% 30.06 in 10.0 mi Calm Calm - N/A   Clear
10:55 PM 69.8 °F - 69.8 °F 100% 30.07 in 10.0 mi Calm Calm - N/A   Clear
11:15 PM 68.0 °F - 68.0 °F 100% 30.07 in 7.0 mi Calm Calm - N/A   Clear
11:35 PM 68.0 °F - 68.0 °F 100% 30.07 in 7.0 mi Calm Calm - N/A   Clear
11:55 PM 68.0 °F - 68.0 °F 100% 30.07 in 7.0 mi Calm Calm - N/A   Clear